TimeCDT,TemperatureF,Dew PointF,Humidity,Sea Level PressureIn,VisibilityMPH,Wind Direction,Wind SpeedMPH,Gust SpeedMPH,PrecipitationIn,Events,Conditions,WindDirDegrees,DateUTC
12:15 AM,55.4,55.4,100,29.70,10.0,SSW,3.5,-,N/A,,Partly Cloudy,210,2013-05-28 05:15:00
12:35 AM,55.4,55.4,100,29.69,10.0,Calm,Calm,-,N/A,,Clear,0,2013-05-28 05:35:00
12:55 AM,55.4,55.4,100,29.69,10.0,South,4.6,-,N/A,,Clear,180,2013-05-28 05:55:00
1:15 AM,55.4,55.4,100,29.70,10.0,SSE,5.8,-,N/A,,Clear,150,2013-05-28 06:15:00
1:35 AM,53.6,53.6,100,29.71,10.0,SSW,5.8,-,N/A,,Clear,200,2013-05-28 06:35:00
1:55 AM,55.4,55.4,100,29.69,10.0,SSW,5.8,-,N/A,,Clear,210,2013-05-28 06:55:00
2:15 AM,55.4,55.4,100,29.69,10.0,SW,4.6,-,N/A,,Clear,220,2013-05-28 07:15:00
2:35 AM,53.6,53.6,100,29.69,10.0,SW,5.8,-,N/A,,Clear,230,2013-05-28 07:35:00
2:55 AM,53.6,53.6,100,29.68,10.0,WSW,6.9,-,N/A,,Clear,240,2013-05-28 07:55:00
3:15 AM,53.6,53.6,100,29.68,10.0,SW,5.8,-,N/A,,Clear,230,2013-05-28 08:15:00
3:35 AM,51.8,51.8,100,29.69,10.0,WSW,8.1,-,N/A,,Clear,240,2013-05-28 08:35:00
3:55 AM,51.8,51.8,100,29.68,10.0,WSW,8.1,-,N/A,,Mostly Cloudy,240,2013-05-28 08:55:00
4:15 AM,53.6,53.6,100,29.68,10.0,WSW,10.4,-,N/A,,Overcast,240,2013-05-28 09:15:00
4:35 AM,53.6,53.6,100,29.67,10.0,WSW,8.1,-,N/A,,Overcast,240,2013-05-28 09:35:00
4:55 AM,53.6,53.6,100,29.68,10.0,WSW,8.1,-,N/A,,Overcast,240,2013-05-28 09:55:00
5:15 AM,53.6,53.6,100,29.67,10.0,SW,8.1,-,N/A,,Mostly Cloudy,230,2013-05-28 10:15:00
5:35 AM,53.6,53.6,100,29.67,10.0,WSW,8.1,-,N/A,,Mostly Cloudy,240,2013-05-28 10:35:00
5:55 AM,53.6,53.6,100,29.66,10.0,SW,10.4,-,N/A,,Scattered Clouds,230,2013-05-28 10:55:00
6:15 AM,53.6,53.6,100,29.66,10.0,SW,9.2,-,N/A,,Clear,230,2013-05-28 11:15:00
6:35 AM,53.6,53.6,100,29.66,10.0,WSW,5.8,-,N/A,,Clear,240,2013-05-28 11:35:00
6:55 AM,53.6,53.6,100,29.66,10.0,SW,9.2,-,N/A,,Clear,230,2013-05-28 11:55:00
7:15 AM,51.8,51.8,100,29.67,10.0,WSW,9.2,-,N/A,,Clear,250,2013-05-28 12:15:00
7:35 AM,53.6,53.6,100,29.66,10.0,WSW,11.5,16.1,N/A,,Partly Cloudy,250,2013-05-28 12:35:00
7:55 AM,55.4,55.4,100,29.66,10.0,WSW,12.7,20.7,N/A,,Mostly Cloudy,250,2013-05-28 12:55:00
8:15 AM,55.4,55.4,100,29.65,10.0,West,15.0,-,N/A,,Mostly Cloudy,270,2013-05-28 13:15:00
8:35 AM,57.2,57.2,100,29.66,10.0,West,13.8,17.3,N/A,,Scattered Clouds,260,2013-05-28 13:35:00
8:55 AM,57.2,57.2,100,29.66,10.0,WSW,10.4,-,N/A,,Mostly Cloudy,250,2013-05-28 13:55:00
9:15 AM,57.2,57.2,100,29.66,10.0,West,10.4,-,N/A,,Mostly Cloudy,280,2013-05-28 14:15:00
9:35 AM,59.0,57.2,94,29.66,10.0,West,9.2,-,N/A,,Mostly Cloudy,270,2013-05-28 14:35:00
9:55 AM,60.8,59.0,94,29.67,10.0,WSW,8.1,-,N/A,,Overcast,250,2013-05-28 14:55:00
10:15 AM,59.0,57.2,94,29.67,10.0,West,8.1,-,N/A,,Overcast,280,2013-05-28 15:15:00
10:35 AM,60.8,59.0,94,29.67,10.0,West,8.1,-,N/A,,Overcast,280,2013-05-28 15:35:00
10:55 AM,62.6,57.2,82,29.66,10.0,West,8.1,-,N/A,,Overcast,270,2013-05-28 15:55:00
11:15 AM,64.4,59.0,83,29.66,10.0,WNW,10.4,-,N/A,,Overcast,290,2013-05-28 16:15:00
11:35 AM,64.4,57.2,77,29.67,10.0,WNW,8.1,-,N/A,,Mostly Cloudy,290,2013-05-28 16:35:00
11:55 AM,66.2,57.2,73,29.66,10.0,WNW,10.4,17.3,N/A,,Mostly Cloudy,290,2013-05-28 16:55:00
12:15 PM,66.2,57.2,73,29.67,10.0,WNW,8.1,-,N/A,,Mostly Cloudy,290,2013-05-28 17:15:00
12:35 PM,68.0,55.4,64,29.67,10.0,West,10.4,16.1,N/A,,Overcast,280,2013-05-28 17:35:00
12:55 PM,66.2,55.4,68,29.67,10.0,WNW,10.4,-,N/A,,Overcast,300,2013-05-28 17:55:00
1:15 PM,69.8,55.4,60,29.67,10.0,WNW,11.5,-,N/A,,Mostly Cloudy,300,2013-05-28 18:15:00
1:35 PM,69.8,55.4,60,29.67,10.0,West,12.7,16.1,N/A,,Mostly Cloudy,280,2013-05-28 18:35:00
1:55 PM,69.8,55.4,60,29.67,10.0,NW,10.4,18.4,N/A,,Mostly Cloudy,310,2013-05-28 18:55:00
2:15 PM,71.6,53.6,53,29.66,10.0,West,13.8,17.3,N/A,,Scattered Clouds,280,2013-05-28 19:15:00
2:35 PM,71.6,53.6,53,29.66,10.0,WNW,13.8,19.6,N/A,,Partly Cloudy,290,2013-05-28 19:35:00
2:55 PM,71.6,53.6,53,29.66,10.0,WNW,15.0,18.4,N/A,,Scattered Clouds,300,2013-05-28 19:55:00
3:15 PM,69.8,55.4,60,29.66,10.0,WNW,9.2,-,N/A,,Mostly Cloudy,300,2013-05-28 20:15:00
3:35 PM,73.4,55.4,53,29.66,10.0,NW,9.2,-,N/A,,Scattered Clouds,310,2013-05-28 20:35:00
3:55 PM,73.4,53.6,50,29.66,10.0,West,8.1,19.6,N/A,,Clear,270,2013-05-28 20:55:00
4:15 PM,73.4,53.6,50,29.67,10.0,WSW,8.1,-,N/A,,Partly Cloudy,250,2013-05-28 21:15:00
4:35 PM,73.4,53.6,50,29.66,10.0,NW,10.4,-,N/A,,Scattered Clouds,310,2013-05-28 21:35:00
4:55 PM,73.4,51.8,47,29.66,10.0,WNW,9.2,16.1,N/A,,Partly Cloudy,300,2013-05-28 21:55:00
5:15 PM,73.4,51.8,47,29.65,10.0,NW,11.5,-,N/A,,Partly Cloudy,310,2013-05-28 22:15:00
5:35 PM,73.4,51.8,47,29.65,10.0,NW,5.8,-,N/A,,Mostly Cloudy,320,2013-05-28 22:35:00
5:55 PM,73.4,51.8,47,29.65,10.0,WSW,10.4,-,N/A,,Scattered Clouds,250,2013-05-28 22:55:00
6:15 PM,73.4,50.0,44,29.65,10.0,West,5.8,-,N/A,,Partly Cloudy,260,2013-05-28 23:15:00
6:35 PM,73.4,51.8,47,29.65,10.0,West,5.8,-,N/A,,Partly Cloudy,260,2013-05-28 23:35:00
6:55 PM,73.4,51.8,47,29.65,10.0,NW,4.6,-,N/A,,Clear,310,2013-05-28 23:55:00
7:15 PM,73.4,50.0,44,29.65,10.0,WNW,3.5,-,N/A,,Clear,290,2013-05-29 00:15:00
7:35 PM,71.6,51.8,50,29.65,10.0,Calm,Calm,-,N/A,,Clear,0,2013-05-29 00:35:00
7:55 PM,73.4,50.0,44,29.66,10.0,Calm,Calm,-,N/A,,Partly Cloudy,0,2013-05-29 00:55:00